Regional Weather Roundup
Issued by NWS

Home | Current Version | Previous Version | Graphics & Text | Print | Product List | Glossary On
Versions: 1 2 3 4 5 6 7 8 9 10 11 12 13 14 15 16 17 18 19 20 21 22 23 24 25 26 27
000
ASUS43 KDMX 171807
RWRIA

WEATHER ROUNDUP FOR IOWA
NATIONAL WEATHER SERVICE DES MOINES IA
100 PM CDT THU APR 17 2014

NOTE: "FAIR" INDICATES FEW OR NO CLOUDS BELOW 12,000 FEET WITH NO
SIGNIFICANT WEATHER AND/OR OBSTRUCTIONS TO VISIBILITY.

* - THESE STATIONS ARE NOT NWS STATIONS...THUS NOT UNDER NWS
QUALITY CONTROL.  THEY ALSO DO NOT REPORT WEATHER SUCH
AS PRECIPITATION OR FOG.

IAZ001>003-012>014-020>022-031>034-043>046-171900-
   NORTHWEST IOWA

CITY           SKY/WX    TMP DP  RH WIND       PRES   REMARKS
CARROLL *      SUNNY     45  27  49 N12       30.29F
CHEROKEE *     SUNNY     43  28  56 N8        30.30F
DENISON *      SUNNY     43  27  52 VRB5G13   30.29F
LE MARS *      SUNNY     43  27  52 NE8G14    30.32S
ORANGE CITY *  MOSUNNY   43  27  52 NE3       30.31R
SHELDON *      SUNNY     39  27  60 NW10      30.29S WCI  32
SIOUX CITY     SUNNY     45  25  45 VRB6      30.32F
6HR MIN TEMP:  30; 6HR MAX TEMP:  45;

SPENCER        PTSUNNY   39  28  64 N9G17     30.30S WCI  33
6HR MIN TEMP:  25; 6HR MAX TEMP:  40;

STORM LAKE *   SUNNY     41  27  56 N9G18     30.30S
$$

IAZ055>058-069>071-079>083-090>094-171900-
   SOUTHWEST IOWA

CITY           SKY/WX    TMP DP  RH WIND       PRES   REMARKS
ATLANTIC *     SUNNY     45  30  57 N8G17     30.29F
AUDUBON *      SUNNY     46  27  46 NW10      30.30S
CLARINDA *     SUNNY     45  28  53 N10       30.31F
COUNCIL BLFS * SUNNY     45  28  53 VRB7      30.30F
CRESTON *      SUNNY     45  30  57 NW12      30.28F
HARLAN  *      SUNNY     43  28  56 N8G16     30.33F
LAMONI         SUNNY     46  30  53 NW8       30.27F
6HR MIN TEMP:  33; 6HR MAX TEMP:  46;

RED OAK *      SUNNY     45  28  53 N10       30.30F
SHENANDOAH *   SUNNY     45  28  53 N10G18    30.31F
$$

IAZ047>049-059>061-072>074-084-171900-
   CENTRAL IOWA

CITY           SKY/WX    TMP DP  RH WIND       PRES   REMARKS
AMES           MOSUNNY   43  30  60 N10G17    30.29F
6HR MIN TEMP:  32; 6HR MAX TEMP:  43;

ANKENY *       MOSUNNY   41  30  65 NW12      30.29F
CHARITON *     SUNNY     45  32  61 NW10G17   30.28S
DES MOINES     PTSUNNY   44  29  55 N12       30.30F
6HR MIN TEMP:  35; 6HR MAX TEMP:  44;

GRINNELL*      CLOUDY    41  32  70 W13       30.28S
KNOXVILLE *    MOSUNNY   43  30  61 NW9G17    30.29S
MARSHALLTOWN   CLOUDY    38  31  76 NW12      30.28S WCI  30
6HR MIN TEMP:  32; 6HR MAX TEMP:  39;

NEWTON *       PTSUNNY   39  30  70 N10G16    30.30S WCI  32
PELLA *        PTSUNNY   43  32  65 NW6G20    30.30S
PERRY *          N/A     45  27  49 N6G16     30.29F
$$

IAZ004>006-015-016-023>025-035-036-171900-
   NORTH CENTRAL IOWA

CITY           SKY/WX    TMP DP  RH WIND       PRES   REMARKS
ALGONA *       PTSUNNY   36  28  75 N8G16     30.30R WCI  29
CLARION *      PTSUNNY   37  30  75 NW9G17    30.29F WCI  31
ESTHERVILLE    MOSUNNY   37  30  75 N12       30.29S WCI  29
6HR MIN TEMP:  24; 6HR MAX TEMP:  37;

FORT DODGE *   SUNNY     43  28  56 NW8       30.30F
MASON CITY     CLOUDY    33  27  78 NW13      30.30R WCI  24
6HR MIN TEMP:  30; 6HR MAX TEMP:  34;

FOREST CITY *  CLOUDY    32  28  86 N9        30.28S WCI  24
IOWA FALLS *   CLOUDY    37  30  75 NW13G18   30.29F WCI  29
$$

IAZ007>011-017>019-026>030-037>042-050>054-066-171900-
   NORTHEAST IOWA

CITY           SKY/WX    TMP DP  RH WIND       PRES   REMARKS
CEDAR RAPIDS   CLOUDY    43  32  65 W14       30.24F
6HR MIN TEMP:  35; 6HR MAX TEMP:  44;

CHARLES CITY * CLOUDY    39  32  75 NW15      30.27R WCI  31
CLINTON *      MOSUNNY   52  36  54 W10G17    30.24F
DECORAH *      CLOUDY    39  32  75 NW9G15    30.23R WCI  33
DUBUQUE        PTSUNNY   49  36  61 NW14      30.20S
6HR MIN TEMP:  35; 6HR MAX TEMP:  49;

MONTICELLO *   PTSUNNY   48  36  61 W15       30.23R
OELWEIN *      CLOUDY   N/A N/A N/A NW10      30.25R
WATERLOO       CLOUDY    42  31  64 W12       30.26R
6HR MIN TEMP:  33; 6HR MAX TEMP:  43;

$$

IAZ064-065-067-068-078-171900-
   EAST CENTRAL IOWA

CITY           SKY/WX    TMP DP  RH WIND       PRES   REMARKS
DAVENPORT      PTSUNNY   50  35  56 W12G20    30.24S
6HR MIN TEMP:  39; 6HR MAX TEMP:  50;

IOWA CITY      CLOUDY    44  34  67 W10       30.28S
6HR MIN TEMP:  36; 6HR MAX TEMP:  44;

MT. PLEASANT * PTSUNNY   46  32  57 NW6       30.27F
MUSCATINE *    PTSUNNY   48  36  61 NW9G15    30.26S
QUAD CITIES    MOSUNNY   50  35  56 W12G18    30.24S
6HR MIN TEMP:  40; 6HR MAX TEMP:  50;

$$

IAZ062-063-075>077-085>089-095>099-171900-
   SOUTHEAST IOWA

CITY           SKY/WX    TMP DP  RH WIND       PRES   REMARKS
BURLINGTON     CLOUDY    46  35  65 NW10      30.26F
6HR MIN TEMP:  41; 6HR MAX TEMP:  46;

FAIRFIELD *    SUNNY     45  32  61 NW12G17   30.27F
FORT MADISON * MOSUNNY   46  36  66 W12       30.27F
KEOKUK *       MOSUNNY   46  36  66 VRB7G13   30.26F
OSKALOOSA *      N/A     44  32  61 NW13G18   30.28F
CENTERVILLE *  SUNNY     46  32  57 W7        30.28F
OTTUMWA        MOSUNNY   45  32  60 NW16      30.27F
6HR MIN TEMP:  36; 6HR MAX TEMP:  45;

WASHINGTON *   MOSUNNY   46  34  61 NW8G16    30.27S
$$

ABBREVIATIONS USED IN REMARKS
   TC - TEMPERATURES IN CELSIUS
  WCI - WIND CHILL INDEX
   HX - HEAT INDEX
  VSB - VISIBILITY
$$




USA.gov is the U.S. government's official web portal to all federal, state and local government web resources and services.